sat.trackr.live / text

‹ back to catalog

STARLINK-34635

NORAD 64761 · 2025-147G

PAYLOAD ACTIVE UNKNOWN

§ Identity

Operator
Country
US
Launch date
2025-07-08
Launch site
AFETR
Launch vehicle
Mass (kg)
RCS (m²)

Purposes: comms

External: N2YO · Heavens-Above · Gunter

§ Orbital elements

Epoch: 2026-05-25T00:25:41.769120Z

Period
93.85 min
Inclination
53.1596°
Eccentricity
0.0001091
Mean motion
15.34407631 rev/d
Perigee alt
461.9 km
Apogee alt
463.4 km
Semi-major
6,840.8 km
B*
7.6538e-4
RAAN
247.8116°
Arg perigee
73.0678°
Mean anomaly
287.0444°
Rev number
5,044

§ Raw data

STARLINK-346351 64761U 25147G   26145.01784455  .00025578  00000+0  76538-3 0  99932 64761  53.1596 247.8116 0001091  73.0678 287.0444 15.34407631 50442

JSON: /api/v1/satellites/64761 · /tle

For live sub-satellite position, see the globe view (requires WebGL).

§ Visibility from observer

Set your observer location to see the next 7 days of passes ≥ 10°. The values pass through the URL so the page stays shareable.

No JS? Fill the form by hand. The geolocation button needs JavaScript.